Torna al catalogo

STARLINK-1496

AttivoComunicazioniVLEO
NORAD 45780·PAYLOAD·🇺🇸 United States

Lanciato Jun 13, 2020 da Cape Canaveral Space Force Station

Loading…

Prossimi Passaggi (prossime 24 ore)

TLE

AggiornatoSource: CelesTrak SupGP

Epoca: Sep 14, 2026, 21:43 UTC

1 45780C 20038BC  26257.90534722  .00086578  00000+0  36537-3 0  2578
2 45780  53.0371 327.1436 0003352 337.6764 140.9159 15.84659927    16

Traccia STARLINK-1496 in tempo reale con AllMySat

Download on the App Store